Regional Weather Roundup
Issued by NWS

Home | Current Version | Previous Version | Graphics & Text | Print | Product List | Glossary On
Versions: 1 2 3 4 5 6 7 8 9 10 11 12 13 14 15 16 17 18 19 20 21 22 23 24 25 26 27 28 29 30 31 32 33 34 35 36 37 38 39 40 41 42 43 44 45 46 47 48 49 50
690
ASUS45 KSLC 030410
RWRUT

UTAH REGIONAL WEATHER ROUNDUP
NATIONAL WEATHER SERVICE SALT LAKE CITY UT
900 PM MST FRI DEC 02 2016

UTZ001>011-023>025-030500-

NORTHERN UTAH

CITY           SKY/WX    TMP DP  RH WIND       PRES   REMARKS
BRIGHAM CITY     N/A     28  20  72 N3        30.30R
HILL AFB       CLEAR     23  15  70 E12       30.26S WCI  12
LOGAN          PTCLDY   N/A N/A N/A S6        30.29R
OGDEN          CLEAR     24  17  74 S9        30.26S WCI  14
SALT LAKE CITY CLEAR     28  23  81 SW5       30.28F WCI  23
TOOELE VALLEY  CLEAR     19  16  86 S7        30.30F WCI  10
WENDOVER       PTCLDY    30  18  59 CALM      30.31S
HEBER CITY     CLEAR     14  10  85 CALM      30.24R
WEST JORDAN    CLEAR     25  23  91 CALM      30.28S

$$

UTZ011>015-024>027-030500-

CENTRAL/NORTHEAST UTAH

CITY           SKY/WX    TMP DP  RH WIND       PRES   REMARKS
PROVO AIRPORT  CLEAR     24  20  84 E5        30.30R WCI  18
MOAB/CANYONLAN CLEAR     30  14  51 W3        30.17R
DELTA          CLEAR     23  19  86 NE5       30.28S WCI  17
PRICE          PTCLDY    23  12  62 NW9       30.18R WCI  13
RICHFIELD      CLOUDY    28  19  69 CALM      30.24R
ROOSEVELT      MOCLDY    21  14  73 CALM      30.25R
VERNAL         CLEAR     20  12  71 W5        30.23R WCI  13

$$

UTZ013>016-019>022-027-030500-

SOUTHERN UTAH

CITY           SKY/WX    TMP DP  RH WIND       PRES   REMARKS
BRYCE CANYON   NOT AVBL
CEDAR CITY     CLEAR     22  15  75 N10       30.19R WCI  11
MILFORD        CLOUDY    28  21  75 N14       30.25R WCI  17
ST GEORGE      CLEAR     39  16  38 W5        30.20R
HANKSVILLE     CLEAR     32  14  47 NW6       30.22R WCI  26
KANAB          CLEAR     32  14  47 N17       30.19R WCI  21
BLANDING       CLEAR     28  18  66 NW5       30.17R WCI  22

$$

REGIONAL REPORTS     COLORADO/ARIZONA

CITY           SKY/WX    TMP DP  RH WIND       PRES   REMARKS
CRAIG, CO      CLOUDY    22  15  75 W5        30.19R WCI  16
GRAND JUNCTION CLOUDY    30  19  63 N6        30.17R WCI  24
RIFLE, CO      CLOUDY    26  23  88 E3        30.19R
MONTROSE, CO   LGT SNOW  28  25  88 S7        30.19R FOG     WCI  21
CORTEZ, CO     LGT SNOW  31  31 100 NE6       30.10R FOG     WCI  25
COLORADO CITY    N/A     32  19  59 W6        30.16R WCI  26
PAGE, AZ       CLEAR     39  12  33 N5        30.12R
GRAND CANYON   CLEAR    N/A N/A N/A E7        30.07R
KINGMAN, AZ    CLEAR     40  12  32 N15       30.07R WCI  32
FLAGSTAFF, AZ  PTCLDY    27  17  66 E12       30.02R WCI  17

$$

REGIONAL REPORTS    NEVADA/IDAHO/WYOMING

CITY           SKY/WX    TMP DP  RH WIND       PRES   REMARKS
LAS VEGAS, NV  CLEAR     48  11  22 N16       30.19R
ELY, NY        CLEAR     12   6  77 CALM      30.26R
ELKO, NV       PTCLDY    23  15  71 CALM      30.30F
POCATELLO, ID  CLOUDY    28  20  71 S10       30.26F WCI  19
BURLEY, ID     CLOUDY    26  22  84 SW9       30.26F WCI  17
FORT BRIDGER,    N/A     17  11  78 W9        30.19F WCI   5
EVANSTON, WY   CLOUDY    15   7  70 SW5       30.17S WCI   8
ROCK SPRINGS,  CLOUDY    13   9  84 SW12      30.16S WCI  -1

$$




USA.gov is the U.S. government's official web portal to all federal, state and local government web resources and services.